Dewpoint
24 24 24 23 22 23 23 23 24 25 25 26 27 28 29 30 32 34 34 34 34 35 36 36 36 37 38 41 41 40 40 42 41 42 44 47 52 52 55 56 54 55 54
21 23 21 20 20 21 21 22 23 23 24 24 26 27 28 29 31 31 31 31 32 32 33 34 34 35 36 36 36 37 38 38 39 38 40 43 45 47 50 54 54 54 54
20 19 20 19 19 19 20 21 21 22 22 23 24 25 26 28 28 29 29 29 29 30 31 32 32 33 32 32 34 32 33 33 34 35 34 36 38 41 44 47 52 54 54
18 18 20 20 18 19 20 21 22 22 22 23 24 24 26 26 27 27 27 26 27 28 31 30 29 29 30 30 29 31 31 32 31 30 31 32 34 36 39 40 40 44 47
16 17 17 19 19 20 20 21 21 22 22 23 24 23 24 24 25 26 25 25 25 25 26 25 26 27 29 28 27 28 28 28 29 30 30 30 30 30 32 34 36 37 40
16 17 18 18 19 20 20 20 20 21 21 22 22 22 23 21 26 26 25 23 23 22 22 23 23 25 24 26 26 26 26 25 25 26 26 27 28 30 30 30 31 31 31
17 17 17 17 18 19 19 19 19 19 20 20 20 21 21 22 25 25 24 21 21 21 21 21 21 20 24 23 24 25 24 25 25 24 24 25 25 26 28 28 29 30 29
16 15 16 17 17 18 18 18 18 19 19 19 19 20 21 19 23 23 22 20 19 20 20 20 20 20 21 22 20 20 21 22 22 22 24 23 23 25 27 27 29 30 31
14 14 14 16 15 16 17 17 18 19 18 18 19 20 20 20 21 21 19 17 16 16 16 18 19 17 19 21 18 19 19 19 20 22 23 23 25 25 26 29 29 29 28
11 11 12 13 13 15 14 15 18 18 16 17 17 19 21 19 17 18 18 15 15 14 15 16 18 15 19 19 16 17 16 17 17 17 16 18 19 20 22 23 23 24 28
8 8 9 10 11 12 13 14 15 14 14 17 14 16 18 17 14 16 17 14 14 14 14 14 12 16 17 17 17 14 15 15 16 13 13 13 15 15 16 17 19 20 20
6 7 9 12 10 10 14 13 14 13 14 14 14 14 15 12 13 14 15 16 16 12 11 11 12 16 14 14 13 13 14 13 10 9 8 9 10 10 12 14 15 17 19
7 8 10 10 11 11 12 10 12 11 12 10 10 11 11 11 11 12 13 14 14 11 10 13 14 12 11 8 9 9 7 7 6 3 3 4 5 9 10 11 12 13 15
7 6 7 8 7 9 8 6 9 10 9 7 8 8 8 8 8 10 11 12 14 11 12 9 8 6 5 4 1 1 -0 1 2 1 -0 -1 3 4 5 7 7 8 10
6 4 5 5 6 5 5 7 5 6 7 5 2 7 2 1 7 11 10 11 11 11 8 -0 -2 -2 -3 -3 -4 -4 -2 -3 -3 -2 -4 -4 -3 -0 1 3 4 5 7
3 3 2 2 4 3 1 4 3 5 6 7 8 7 8 9 10 11 11 12 12 10 -7 -9 -6 -6 -7 -7 -7 -8 -7 -7 -6 -5 -6 -6 -6 -4 -3 -1 1 2 4
2 1 1 0 -1 1 1 1 -2 1 3 4 4 6 7 8 8 9 10 10 9 2 -18 -16 -9 -9 -9 -9 -9 -10 -11 -9 -7 -8 -9 -8 -7 -6 -6 -4 -3 -1 0
-3 -3 -1 -1 -1 -1 -0 -2 -1 -3 -5 -4 -1 2 4 5 6 8 9 3 -14 -13 -19 -21 -16 -12 -12 -11 -11 -12 -12 -12 -12 -11 -11 -11 -10 -9 -8 -7 -6 -3 -1
-3 -2 -4 -3 -2 -3 -5 -3 -3 -6 -8 -11 -12 -5 -2 1 4 6 5 -17 -20 -15 -22 -21 -19 -14 -13 -13 -13 -14 -14 -15 -14 -14 -14 -13 -12 -10 -10 -9 -7 -4 0
-6 -7 -8 -9 -8 -9 -7 -9 -11 -13 -16 -16 -15 -13 -16 -16 -13 -20 -20 -22 -20 -16 -15 -20 -16 -17 -15 -15 -15 -15 -16 -17 -16 -16 -15 -14 -13 -12 -11 -10 -8 -6 1
-10 -12 -11 -17 -18 -19 -20 -19 -17 -20 -17 -16 -15 -10 2 -1 -15 -23 -18 -18 -18 -15 -14 -21 -16 -15 -15 -16 -16 -17 -18 -18 -18 -17 -16 -15 -15 -14 -12 -10 -8 -3 2
-19 -20 -21 -23 -21 -21 -22 -21 -22 -22 -18 -17 -14 -14 2 -11 -16 -16 -17 -18 -16 -17 -15 -16 -16 -16 -16 -16 -17 -18 -18 -19 -19 -18 -17 -16 -16 -15 -13 -11 -7 -1 0
-20 -21 -22 -23 -22 -21 -24 -24 -21 -20 -19 -19 -18 -16 -17 -16 -16 -16 -15 -15 -15 -16 -15 -19 -17 -17 -16 -17 -17 -18 -19 -20 -19 -17 -18 -17 -16 -16 -13 -10 -4 -1 -0
-22 -22 -21 -22 -24 -25 -23 -22 -22 -18 -18 -18 -17 -17 -16 -15 -16 -15 -15 -15 -15 -15 -15 -16 -17 -18 -18 -18 -18 -18 -19 -18 -18 -18 -16 -16 -17 -13 -10 -5 -3 -0 -1
-27 -24 -23 -21 -24 -22 -24 -23 -21 -21 -20 -17 -16 -16 -15 -16 -15 -15 -15 -15 -16 -16 -17 -17 -17 -19 -21 -21 -21 -21 -20 -16 -19 -18 -15 -12 -10 -6 -5 -3 -1 -1 -1
-23 -22 -20 -22 -21 -22 -22 -20 -18 -18 -17 -16 -16 -16 -16 -16 -15 -15 -15 -16 -17 -17 -18 -17 -18 -20 -21 -20 -20 -17 -15 -8 -9 -7 -4 -3 -4 -5 -4 -3 -3 -1 -1
Lifted_Index
11 11 11 12 12 12 12 13 13 13 13 13 12 12 12 12 12 12 12 12 12 11 12 11 11 11 11 11 10 10 9 8 7 7 7 6 5 3 2 1 1 1 1
11 11 11 12 12 12 12 13 13 13 13 13 13 13 13 12 12 12 12 12 12 11 11 11 11 11 11 11 11 11 10 10 9 9 9 8 7 6 4 2 1 1 0
11 11 11 11 11 11 12 13 13 14 14 13 13 13 13 13 13 12 12 12 12 12 12 12 12 11 11 11 11 11 11 11 11 10 10 10 10 9 7 6 4 3 2
10 10 10 10 10 11 12 13 13 14 14 14 14 13 13 13 13 13 13 13 13 13 13 13 12 12 12 12 11 11 11 11 11 10 10 10 10 10 9 9 8 7 6
8 8 8 9 10 11 12 13 13 14 14 14 14 14 14 14 14 14 14 13 13 13 13 13 13 13 13 13 13 13 12 12 11 11 10 10 10 10 10 10 10 10 9
7 7 8 9 10 11 12 13 13 13 14 14 14 14 14 14 15 15 15 14 14 14 14 14 14 14 14 14 14 14 14 13 13 12 12 12 12 12 12 12 11 10 9
6 7 8 9 10 11 12 13 13 13 13 14 14 14 14 15 15 16 16 16 15 15 15 15 16 16 16 15 15 15 15 15 15 14 14 14 14 15 15 14 13 12 11
6 7 8 9 11 12 12 13 13 13 13 14 14 14 15 16 16 17 17 17 16 16 17 17 17 17 17 17 17 16 16 17 17 17 16 16 16 16 16 16 15 14 13
7 8 9 11 11 12 13 13 13 13 14 14 15 15 16 16 17 18 18 17 17 17 18 18 18 18 19 19 18 18 18 18 19 19 18 18 17 17 17 17 16 15 14
9 10 11 12 13 13 13 13 14 14 15 15 15 16 17 17 18 19 19 18 18 18 18 19 19 19 20 20 20 19 19 19 20 20 20 20 19 18 18 18 17 16 15
11 12 13 13 14 14 14 14 15 15 15 15 16 17 18 18 19 20 20 19 19 18 18 19 20 20 21 21 21 21 21 21 21 21 21 20 20 19 19 19 19 18 17
13 13 14 14 14 15 15 15 15 15 15 15 15 16 17 19 19 20 20 20 20 19 19 20 21 21 22 22 23 23 23 23 22 21 21 20 20 20 19 19 19 19 18
14 14 14 15 15 15 15 15 15 15 15 15 15 16 17 18 19 20 21 21 21 20 20 21 21 22 23 23 23 24 24 23 22 21 20 20 20 20 19 18 17 17 17
14 14 15 15 15 16 16 16 16 16 16 16 16 16 17 18 19 20 21 21 22 21 21 21 22 22 22 22 22 23 23 22 21 20 19 19 19 18 18 17 15 14 14
14 15 15 15 15 16 16 16 17 18 18 18 18 18 18 19 20 21 22 22 22 22 21 21 21 20 20 20 20 20 20 20 20 19 18 17 16 16 16 15 14 13 12
15 15 15 15 15 15 16 16 18 19 20 20 20 20 21 21 21 22 22 22 22 21 20 19 18 18 17 18 18 18 18 19 18 18 17 16 16 15 15 15 15 13 12
15 16 16 16 15 15 16 16 17 18 19 20 21 21 21 22 21 21 21 21 20 19 17 16 16 16 16 16 17 17 17 17 18 17 17 17 17 16 16 16 15 14 13
16 16 16 16 16 16 16 16 17 17 17 18 19 20 20 20 20 19 19 18 17 16 15 15 15 15 16 16 16 16 17 17 17 17 17 17 17 17 16 16 16 15 14
17 16 16 16 16 17 17 17 17 16 16 16 17 18 18 18 17 17 17 16 15 15 15 15 15 16 16 16 17 17 17 17 17 17 17 17 17 17 17 17 17 16 16
17 17 17 17 17 17 17 17 17 16 16 15 15 16 16 16 15 15 15 15 15 15 15 15 16 16 17 17 17 17 17 17 17 17 17 17 17 18 18 18 18 17 17
16 17 17 17 17 17 17 17 16 16 15 14 15 15 15 15 14 14 15 15 16 16 16 16 17 17 17 18 18 17 17 17 17 17 17 17 18 18 18 19 19 19 19
16 16 17 17 17 17 17 17 16 15 14 14 14 15 15 15 15 15 15 16 16 17 17 17 17 18 18 18 18 18 18 18 18 18 18 18 18 18 18 19 19 19 20
17 16 16 16 17 16 16 16 15 14 14 13 14 14 14 15 15 15 15 16 17 17 18 18 18 18 19 19 19 19 19 19 19 19 19 19 19 18 18 19 19 20 20
17 17 16 16 16 16 15 15 14 14 13 13 13 14 14 15 15 15 16 17 17 17 18 18 18 18 19 19 20 20 20 20 20 20 20 19 19 19 18 19 19 20 20
17 16 16 16 15 15 14 13 13 13 13 13 13 14 14 15 15 16 16 17 17 17 18 18 18 18 19 19 19 20 20 20 21 21 20 20 19 19 19 19 19 20 20
16 16 16 16 15 14 13 13 13 13 13 13 14 14 15 15 16 16 16 17 17 17 18 18 18 18 19 19 19 20 20 20 20 20 20 20 19 19 18 18 19 19 20